This is the latest recevied weather packets stored in our database for station/object IU5JAE-13. If no packets are shown the sender has not sent any weather packets the latest 10 day(s).
| Time | Temp. | Humidity | Pressure | Rain* | Wind** | Luminosity | Snow |
|---|---|---|---|---|---|---|---|
| 1787923832 | 31.67° C | 62% | 1018 hPa | 0 mm | - | 362 W/m² | - |
| 1787923230 | 32.22° C | 60% | 1018.1 hPa | 0 mm | - | 363 W/m² | - |
| 1787922627 | 32.22° C | 57% | 1018.1 hPa | 0 mm | - | 394 W/m² | - |
| 1787922025 | 31.67° C | 60% | 1018.3 hPa | 0 mm | - | 406 W/m² | - |
| 1787921422 | 31.67° C | 60% | 1018.1 hPa | 0 mm | - | 387 W/m² | - |
| 1787920820 | 31.67° C | 61% | 1018.3 hPa | 0 mm | - | 446 W/m² | - |
| 1787920218 | 32.22° C | 59% | 1018.1 hPa | 0 mm | - | 429 W/m² | - |
| 1787919635 | 31.67° C | 60% | 1018.4 hPa | 0 mm | - | 476 W/m² | - |
| 1787919033 | 31.11° C | 60% | 1018.5 hPa | 0 mm | - | 457 W/m² | - |
| 1787918430 | 31.67° C | 58% | 1018.6 hPa | 0 mm | - | 457 W/m² | - |
| 1787917828 | 31.11° C | 62% | 1018.8 hPa | 0 mm | - | 453 W/m² | - |
| 1787917226 | 30.56° C | 67% | 1018.8 hPa | 0 mm | - | 462 W/m² | - |
| 1787916623 | 31.67° C | 64% | 1018.6 hPa | 0 mm | - | 436 W/m² | - |
| 1787916021 | 31.11° C | 69% | 1018.6 hPa | 0 mm | - | 501 W/m² | - |
| 1787915418 | 31.11° C | 69% | 1018.7 hPa | 0 mm | - | 517 W/m² | - |
| 1787914816 | 30.56° C | 73% | 1018.7 hPa | 0 mm | - | 512 W/m² | - |
| 1787914234 | 31.11° C | 71% | 1018.6 hPa | 0 mm | - | 508 W/m² | - |
| 1787913631 | 31.11° C | 69% | 1018.6 hPa | 0 mm | - | 506 W/m² | - |
| 1787913029 | 31.11° C | 70% | 1018.7 hPa | 0 mm | - | 501 W/m² | - |
| 1787912426 | 30.56° C | 66% | 1018.6 hPa | 0 mm | - | 493 W/m² | - |
| 1787911824 | 31.11° C | 72% | 1018.6 hPa | 0 mm | - | 483 W/m² | - |
| 1787911222 | 30° C | 75% | 1018.8 hPa | 0 mm | - | 471 W/m² | - |
| 1787910619 | 29.44° C | 75% | 1018.9 hPa | 0 mm | - | 465 W/m² | - |
| 1787910017 | 30° C | 74% | 1018.9 hPa | 0 mm | - | 452 W/m² | - |
| 1787909434 | 30° C | 71% | 1018.9 hPa | 0 mm | - | 435 W/m² | - |
* Rain latest hour (hover to see other rain measurements)
** Current wind speed in m/s (hover to see current wind gust speed)